This demonstration page uses our WeatherBlox Daily Observations layout. Learn more.

Left ArrowRight Arrow

39.92423, -83.80882

Hourly Observations for January 1, 2015

Temp ( °F °C ) Dew Point ( °F °C ) Humidity (%) Winds ( mph kmh ) Pressure ( in mb ) Visibility ( mi km ) Precip ( " mm )
12:56 am 00:56 Clear 20 -6.6 6 -14.4 54 54 WSW 21 33 30.29 1026 10 16 0.00 0.00
1:56 am 01:56 Clear 19 -7.2 7 -13.8 60 60 WSW 14 22 30.28 1025 10 16 0.00 0.00
2:56 am 02:56 Clear 19 -7.2 8 -13.3 62 62 SW 12 19 30.28 1025 10 16 0.00 0.00
3:56 am 03:56 Clear 19 -7.2 9 -12.7 65 65 SW 12 19 30.26 1025 10 16 0.00 0.00
4:56 am 04:56 Clear 18 -7.7 9 -12.7 68 68 SW 10 17 30.24 1024 10 16 0.00 0.00
5:56 am 05:56 Clear 19 -7.2 9 -12.7 65 65 SW 10 17 30.23 1024 10 16 0.00 0.00
6:56 am 06:56 Clear 19 -7.2 10 -12.2 68 68 SW 16 26 30.23 1024 10 16 0.00 0.00
7:56 am 07:56 Clear 19 -7.2 10 -12.2 68 68 SW 15 24 30.21 1023 10 16 0.00 0.00
8:56 am 08:56 Sunny 21 -6.1 11 -11.6 65 65 SW 15 24 30.21 1023 9 14 0.00 0.00
9:56 am 09:56 Sunny 24 -4.4 13 -10.5 63 63 SW 20 31 30.21 1023 10 16 0.00 0.00
10:56 am 10:56 Sunny 29 -1.6 16 -8.8 58 58 SW 17 28 30.20 1023 9 14 0.00 0.00
11:56 am 11:56 Sunny 31 -0.5 17 -8.3 56 56 WSW 23 37 30.15 1021 10 16 0.00 0.00
12:56 pm 12:56 Sunny 33 0.5 17 -8.3 52 52 SW 24 39 30.13 1020 10 16 0.00 0.00
1:56 pm 13:56 Sunny 34 1.1 18 -7.7 52 52 SW 17 28 30.10 1019 10 16 0.00 0.00
2:56 pm 14:56 Sunny 36 2.2 18 -7.7 48 48 WSW 18 30 30.09 1019 10 16 0.00 0.00
3:56 pm 15:56 Sunny 35 1.6 19 -7.2 52 52 WSW 21 33 30.08 1019 10 16 0.00 0.00
4:56 pm 16:56 Sunny 34 1.1 19 -7.2 54 54 WSW 18 30 30.10 1019 10 16 0.00 0.00
5:56 pm 17:56 Clear 33 0.5 19 -7.2 57 57 WSW 13 20 30.12 1020 10 16 0.00 0.00
6:56 pm 18:56 Clear 32 0 19 -7.2 59 59 SW 14 22 30.14 1021 10 16 0.00 0.00
7:56 pm 19:56 Clear 32 0 20 -6.6 62 62 WSW 15 24 30.18 1022 10 16 0.00 0.00
8:56 pm 20:56 Clear 31 -0.5 20 -6.6 64 64 WSW 12 19 30.19 1022 10 16 0.00 0.00
9:56 pm 21:56 Clear 30 -1.1 20 -6.6 67 67 WSW 12 19 30.20 1023 10 16 0.00 0.00
10:56 pm 22:56 Clear 29 -1.6 21 -6.1 72 72 WSW 14 22 30.22 1023 10 16 0.00 0.00
11:56 pm 23:56 Clear 29 -1.6 21 -6.1 72 72 WSW 13 20 30.22 1023 10 16 0.00 0.00

Powered by AerisWeather